| time (UTC) | temp C | wind direction | speed KPH | gust KPH | rain 1hr cm | rain 24hr cm | rain mn cm | humidity % | barometer mb |
| 20260904190033 | 25 | 280 | 25.7 | 0.0 | 0.00 | 0.00 | 0.00 | 28 | 1013.1 |
| 20260904184522 | 25 | 357 | 24.1 | 0.0 | 0.00 | 0.00 | 0.00 | 30 | 1012.7 |
| 20260904183025 | 25 | 359 | 27.4 | 0.0 | 0.00 | 0.00 | 0.00 | 32 | 1012.8 |
| 20260904181527 | 25 | 359 | 20.9 | 0.0 | 0.00 | 0.00 | 0.00 | 40 | 1012.6 |
| 20260904180010 | 26 | 359 | 20.9 | 0.0 | 0.00 | 0.00 | 0.00 | 40 | 1012.4 |
| 20260904174506 | 26 | 359 | 19.3 | 0.0 | 0.00 | 0.00 | 0.00 | 42 | 1012.5 |
| 20260904173003 | 26 | 337 | 19.3 | 0.0 | 0.00 | 0.00 | 0.00 | 41 | 1012.7 |
| 20260904171558 | 27 | 359 | 19.3 | 0.0 | 0.00 | 0.00 | 0.00 | 40 | 1012.7 |
| 20260904170054 | 27 | 282 | 24.1 | 0.0 | 0.00 | 0.00 | 0.00 | 36 | 1012.9 |
| 20260904164548 | 28 | 359 | 22.5 | 0.0 | 0.00 | 0.00 | 0.00 | 33 | 1012.8 |
| 20260904163049 | 28 | 357 | 17.7 | 0.0 | 0.00 | 0.00 | 0.00 | 33 | 1012.9 |
| 20260904161539 | 28 | 359 | 19.3 | 0.0 | 0.00 | 0.00 | 0.00 | 33 | 1013.0 |
| 20260904160035 | 28 | 359 | 17.7 | 0.0 | 0.00 | 0.00 | 0.00 | 30 | 1012.8 |
| 20260904154530 | 29 | 359 | 17.7 | 0.0 | 0.00 | 0.00 | 0.00 | 28 | 1012.9 |
| 20260904153026 | 30 | 0 | 16.1 | 0.0 | 0.00 | 0.00 | 0.00 | 26 | 1013.1 |
| 20260904151525 | 30 | 275 | 16.1 | 0.0 | 0.00 | 0.00 | 0.00 | 24 | 1013.1 |
| 20260904150019 | 30 | 356 | 16.1 | 0.0 | 0.00 | 0.00 | 0.00 | 27 | 1013.2 |
| 20260904144512 | 30 | 357 | 16.1 | 0.0 | 0.00 | 0.00 | 0.00 | 26 | 1013.2 |
| 20260904143007 | 30 | 189 | 12.9 | 0.0 | 0.00 | 0.00 | 0.00 | 29 | 1013.3 |
| 20260904141504 | 30 | 356 | 11.3 | 0.0 | 0.00 | 0.00 | 0.00 | 30 | 1013.3 |
| 20260904140100 | 30 | 275 | 12.9 | 0.0 | 0.00 | 0.00 | 0.00 | 30 | 1013.5 |
| 20260904134557 | 30 | 287 | 12.9 | 0.0 | 0.00 | 0.00 | 0.00 | 26 | 1013.5 |
| 20260904133058 | 30 | 272 | 9.7 | 0.0 | 0.00 | 0.00 | 0.00 | 25 | 1013.6 |
| 20260904131547 | 30 | 282 | 14.5 | 0.0 | 0.00 | 0.00 | 0.00 | 25 | 1013.5 |
| 20260904130040 | 31 | 281 | 11.3 | 0.0 | 0.00 | 0.00 | 0.00 | 22 | 1013.8 |
| 20260904124536 | 30 | 357 | 14.5 | 0.0 | 0.00 | 0.00 | 0.00 | 25 | 1013.9 |
| 20260904123031 | 30 | 189 | 11.3 | 0.0 | 0.00 | 0.00 | 0.00 | 22 | 1013.9 |
| 20260904121527 | 30 | 179 | 11.3 | 0.0 | 0.00 | 0.00 | 0.00 | 23 | 1014.1 |
| 20260904120022 | 30 | 167 | 9.7 | 0.0 | 0.00 | 0.00 | 0.00 | 24 | 1014.2 |
| 20260904114518 | 30 | 184 | 11.3 | 0.0 | 0.00 | 0.00 | 0.00 | 25 | 1014.2 |
| 20260904113013 | 29 | 188 | 11.3 | 0.0 | 0.00 | 0.00 | 0.00 | 28 | 1014.3 |
| 20260904111509 | 30 | 184 | 4.8 | 0.0 | 0.00 | 0.00 | 0.00 | 29 | 1014.5 |
| 20260904110005 | 28 | 143 | 3.2 | 0.0 | 0.00 | 0.00 | 0.00 | 32 | 1014.6 |
| 20260904104607 | 28 | 86 | 1.6 | 0.0 | 0.00 | 0.00 | 0.00 | 34 | 1014.8 |
| 20260904103103 | 27 | 195 | 6.4 | 0.0 | 0.00 | 0.00 | 0.00 | 36 | 1014.8 |
| 20260904101552 | 27 | 175 | 6.4 | 0.0 | 0.00 | 0.00 | 0.00 | 36 | 1014.8 |
| 20260904100048 | 27 | 152 | 1.6 | 0.0 | 0.00 | 0.00 | 0.00 | 35 | 1015.2 |
| 20260904094542 | 27 | 113 | 1.6 | 0.0 | 0.00 | 0.00 | 0.00 | 35 | 1015.4 |
| 20260904093037 | 27 | 144 | 3.2 | 0.0 | 0.00 | 0.00 | 0.00 | 34 | 1015.5 |
| 20260904091548 | 26 | 175 | 1.6 | 0.0 | 0.00 | 0.00 | 0.00 | 34 | 1015.5 |
| 20260904090027 | 26 | 195 | 1.6 | 0.0 | 0.00 | 0.00 | 0.00 | 42 | 1015.4 |
| 20260904084523 | 26 | 154 | 3.2 | 0.0 | 0.00 | 0.00 | 0.00 | 44 | 1015.6 |
| 20260904083026 | 25 | 357 | 4.8 | 0.0 | 0.00 | 0.00 | 0.00 | 48 | 1015.5 |
| 20260904081515 | 26 | 148 | 0.0 | 0.0 | 0.00 | 0.00 | 0.00 | 50 | 1015.4 |
| 20260904080010 | 26 | 64 | 0.0 | 0.0 | 0.00 | 0.00 | 0.00 | 49 | 1015.3 |
| 20260904074507 | 25 | 155 | 0.0 | 0.0 | 0.00 | 0.00 | 0.00 | 51 | 1015.2 |
| 20260904073001 | 25 | 112 | 0.0 | 0.0 | 0.00 | 0.00 | 0.00 | 51 | 1015.2 |
| 20260904071625 | 25 | 71 | 0.0 | 0.0 | 0.00 | 0.00 | 0.00 | 51 | 1015.1 |
| 20260904070105 | 25 | 59 | 0.0 | 0.0 | 0.00 | 0.00 | 0.00 | 51 | 1015.1 |
| 20260904064604 | 24 | 64 | 0.0 | 0.0 | 0.00 | 0.00 | 0.00 | 51 | 1015.1 |
| 20260904063050 | 25 | 134 | 0.0 | 0.0 | 0.00 | 0.00 | 0.00 | 52 | 1015.0 |
| 20260904061539 | 24 | 155 | 0.0 | 0.0 | 0.00 | 0.00 | 0.00 | 52 | 1014.9 |
| 20260904060034 | 24 | 134 | 0.0 | 0.0 | 0.00 | 0.00 | 0.00 | 52 | 1014.9 |
| 20260904054535 | 23 | 134 | 0.0 | 0.0 | 0.00 | 0.00 | 0.00 | 53 | 1015.0 |
| 20260904053025 | 23 | 134 | 0.0 | 0.0 | 0.00 | 0.00 | 0.00 | 54 | 1015.0 |
| 20260904051522 | 23 | 134 | 0.0 | 0.0 | 0.00 | 0.00 | 0.00 | 54 | 1014.9 |
| 20260904050018 | 23 | 134 | 0.0 | 0.0 | 0.00 | 0.00 | 0.00 | 55 | 1014.9 |
| 20260904044514 | 22 | 134 | 0.0 | 0.0 | 0.00 | 0.00 | 0.00 | 55 | 1014.9 |
| 20260904043009 | 23 | 134 | 0.0 | 0.0 | 0.00 | 0.00 | 0.00 | 55 | 1014.9 |
| 20260904041513 | 23 | 134 | 0.0 | 0.0 | 0.00 | 0.00 | 0.00 | 55 | 1014.7 |
| 20260904040001 | 23 | 134 | 0.0 | 0.0 | 0.00 | 0.00 | 0.00 | 54 | 1014.7 |
| 20260904034556 | 23 | 134 | 0.0 | 0.0 | 0.00 | 0.00 | 0.00 | 54 | 1014.6 |
| 20260904033058 | 23 | 134 | 0.0 | 0.0 | 0.00 | 0.00 | 0.00 | 54 | 1014.7 |
| 20260904031601 | 23 | 134 | 0.0 | 0.0 | 0.00 | 0.00 | 0.00 | 54 | 1014.6 |
| 20260904030044 | 23 | 133 | 0.0 | 0.0 | 0.00 | 0.00 | 0.00 | 54 | 1014.4 |
| 20260904024544 | 23 | 133 | 0.0 | 0.0 | 0.00 | 0.00 | 0.00 | 54 | 1014.5 |
| 20260904023043 | 23 | 133 | 0.0 | 0.0 | 0.00 | 0.00 | 0.00 | 54 | 1014.5 |
| 20260904021550 | 23 | 133 | 0.0 | 0.0 | 0.00 | 0.00 | 0.00 | 53 | 1014.5 |
| 20260904020043 | 23 | 133 | 0.0 | 0.0 | 0.00 | 0.00 | 0.00 | 53 | 1014.4 |
| 20260904014544 | 23 | 133 | 0.0 | 0.0 | 0.00 | 0.00 | 0.00 | 53 | 1014.2 |
| 20260904013040 | 23 | 133 | 0.0 | 0.0 | 0.00 | 0.00 | 0.00 | 53 | 1014.3 |
| 20260904011540 | 23 | 133 | 0.0 | 0.0 | 0.00 | 0.00 | 0.00 | 53 | 1014.4 |
| 20260904010039 | 23 | 133 | 0.0 | 0.0 | 0.00 | 0.00 | 0.00 | 54 | 1014.5 |
| 20260904004537 | 23 | 133 | 0.0 | 0.0 | 0.00 | 0.00 | 0.00 | 54 | 1014.6 |
| 20260904003035 | 23 | 133 | 0.0 | 0.0 | 0.00 | 0.00 | 0.00 | 53 | 1014.6 |
| 20260904001537 | 23 | 133 | 0.0 | 0.0 | 0.00 | 0.00 | 0.00 | 53 | 1014.9 |
| 20260904000033 | 23 | 133 | 0.0 | 0.0 | 0.00 | 0.00 | 0.00 | 54 | 1015.0 |
| 20260903234531 | 23 | 133 | 0.0 | 0.0 | 0.00 | 0.00 | 0.00 | 54 | 1015.0 |
| 20260903233034 | 22 | 133 | 0.0 | 0.0 | 0.00 | 0.00 | 0.00 | 55 | 1015.0 |
| 20260903231530 | 23 | 133 | 0.0 | 0.0 | 0.00 | 0.00 | 0.00 | 54 | 1015.0 |
| 20260903230028 | 23 | 133 | 0.0 | 0.0 | 0.00 | 0.00 | 0.00 | 53 | 1014.9 |
| 20260903224530 | 23 | 133 | 0.0 | 0.0 | 0.00 | 0.00 | 0.00 | 53 | 1014.9 |
| 20260903223020 | 23 | 133 | 0.0 | 0.0 | 0.00 | 0.00 | 0.00 | 53 | 1014.8 |
| 20260903221534 | 23 | 133 | 0.0 | 0.0 | 0.00 | 0.00 | 0.00 | 53 | 1014.9 |
| 20260903220012 | 23 | 133 | 0.0 | 0.0 | 0.00 | 0.00 | 0.00 | 53 | 1014.8 |
| 20260903214507 | 23 | 133 | 0.0 | 0.0 | 0.00 | 0.00 | 0.00 | 53 | 1014.8 |
| 20260903213008 | 23 | 133 | 0.0 | 0.0 | 0.00 | 0.00 | 0.00 | 53 | 1014.8 |
| 20260903211558 | 23 | 133 | 0.0 | 0.0 | 0.00 | 0.00 | 0.00 | 55 | 1014.8 |
| 20260903210056 | 23 | 133 | 0.0 | 0.0 | 0.00 | 0.00 | 0.00 | 59 | 1014.8 |
| 20260903204555 | 23 | 133 | 0.0 | 0.0 | 0.00 | 0.00 | 0.00 | 60 | 1014.8 |
| 20260903203052 | 23 | 133 | 0.0 | 0.0 | 0.00 | 0.00 | 0.00 | 60 | 1014.8 |
| 20260903201542 | 23 | 133 | 0.0 | 0.0 | 0.00 | 0.00 | 0.00 | 57 | 1014.9 |
| 20260903200045 | 23 | 133 | 0.0 | 0.0 | 0.00 | 0.00 | 0.00 | 55 | 1014.8 |
| 20260903194541 | 23 | 130 | 0.0 | 0.0 | 0.00 | 0.00 | 0.00 | 54 | 1014.8 |
| 20260903193035 | 23 | 123 | 0.0 | 0.0 | 0.00 | 0.00 | 0.00 | 54 | 1014.6 |
| 20260903191533 | 23 | 124 | 0.0 | 0.0 | 0.00 | 0.00 | 0.00 | 52 | 1014.6 |